This demonstration page uses our WeatherBlox Daily Observations layout. Learn more.

Left ArrowRight Arrow

Hourly Observations for February 11, 2015

Temp ( °F °C ) Dew Point ( °F °C ) Humidity (%) Winds ( mph kmh ) Pressure ( in mb ) Visibility ( mi km ) Precip ( " mm )
12:53 am 00:53 Cloudy 25 -3.9 23 -5 92 92 SE 3 6 30.17 1022 7 11.26538 N/A
1:53 am 01:53 Cloudy with Mist and Fog 25 -3.9 23 -5 92 92 N N/A 30.17 1022 6 9.65604 N/A
2:13 am 02:13 Cloudy with Mist and Fog 24 -4.4 23 -5 96 96 ESE 5 7 30.18 1022 6 9.65604 N/A
2:53 am 02:53 Cloudy with Mist and Fog 25 -3.9 23 -5 92 92 ESE 3 6 30.16 1021 5 8.0467 N/A
3:38 am 03:38 Cloudy with Mist and Fog 25 -3.9 23 -5 92 92 VRB 5 7 30.15 1021 6 9.65604 N/A
3:53 am 03:53 Cloudy with Mist and Fog 25 -3.9 23 -5 92 92 SSW 3 6 30.15 1021 6 9.65604 N/A
4:06 am 04:06 Cloudy with Mist and Fog 25 -3.9 23 -5 92 92 SW 3 6 30.15 1021 6 9.65604 N/A
4:28 am 04:28 Cloudy with Mist and Fog 25 -3.9 23 -5 92 92 SSE 3 6 30.12 1020 6 9.65604 N/A
4:53 am 04:53 Cloudy with Mist and Fog 25 -3.9 23 -5 92 92 VRB 3 6 30.13 1020 6 9.65604 N/A
5:34 am 05:34 Partly Cloudy with Mist and Fog 25 -3.9 22 -5.6 88 88 SE 3 6 30.12 1020 6 9.65604 N/A
5:53 am 05:53 Partly Cloudy with Mist and Fog 25 -3.9 22 -5.6 88 88 N N/A 30.11 1020 6 9.65604 N/A
6:53 am 06:53 Cloudy with Mist and Fog 26 -3.3 23 -5 88 88 W 5 7 30.13 1020 6 9.65604 N/A
7:53 am 07:53 Cloudy with Mist and Fog 26 -3.3 23 -5 88 88 S 3 6 30.13 1020 6 9.65604 N/A
8:53 am 08:53 Cloudy with Haze 28 -2.2 23 -5 81 81 WSW 3 6 30.14 1021 6 9.65604 N/A
9:53 am 09:53 Cloudy 30 -1.1 23 -5 75 75 VRB 5 7 30.11 1020 7 11.26538 N/A
10:53 am 10:53 Partly Cloudy 33 0.6 25 -3.9 72 72 WSW 5 7 30.11 1020 8 12.87472 N/A
11:53 am 11:53 Mostly Cloudy 37 2.8 26 -3.3 65 65 WSW 8 13 30.09 1019 10 16.0934 N/A
12:53 pm 12:53 Cloudy 38 3.3 26 -3.3 62 62 WSW 7 11 30.06 1018 10 16.0934 N/A
1:53 pm 13:53 Mostly Cloudy 43 6.1 28 -2.2 56 56 WSW 9 15 30.03 1017 10 16.0934 N/A
2:53 pm 14:53 Cloudy 43 6.1 29 -1.7 58 58 WSW 7 11 30 1016 10 16.0934 N/A
3:29 pm 15:29 Cloudy 43 6.1 29 -1.7 58 58 W 8 13 30.03 1017 10 16.0934 N/A
3:53 pm 15:53 Cloudy 42 5.6 29 -1.7 60 60 W 7 11 30.01 1016 10 16.0934 N/A
4:53 pm 16:53 Cloudy 41 5 29 -1.7 62 62 W 8 13 30.03 1017 9 14.48406 N/A
5:53 pm 17:53 Cloudy with Mist and Fog 38 3.3 34 1.1 86 86 WNW 12 19 30.05 1018 3 4.82802 N/A
6:53 pm 18:53 Cloudy 37 2.8 32 undefined 82 82 WNW 13 20 30.06 1018 9 14.48406 N/A
7:11 pm 19:11 Cloudy 37 2.8 32 undefined 82 82 W 9 15 30.09 1019 9 14.48406 N/A
7:53 pm 19:53 Cloudy 37 2.8 31 -0.6 79 79 W 7 11 30.07 1018 10 16.0934 N/A
8:36 pm 20:36 Cloudy with Light Rain 36 2.2 33 0.6 89 89 W 5 7 30.06 1018 6 9.65604 N/A
8:53 pm 20:53 Cloudy 36 2.2 33 0.6 89 89 W 7 11 30.06 1018 8 12.87472 N/A
9:06 pm 21:06 Cloudy with Rain 35 1.7 32 undefined 89 89 WNW 17 28 30.09 1019 5 8.0467 N/A
9:19 pm 21:19 Cloudy 34 1.1 31 -0.6 89 89 WNW 14 22 30.12 1020 10 16.0934 N/A
9:48 pm 21:48 Cloudy 34 1 30 -1 87 87 WNW 14 22 30.12 1020 10 16.0934 N/A
9:53 pm 21:53 Cloudy 34 1.1 30 -1.1 85 85 WNW 17 28 30.07 1018 10 16.0934 N/A
10:26 pm 22:26 Cloudy 34 1.1 29 -1.7 82 82 WNW 15 24 30.12 1020 10 16.0934 N/A
10:53 pm 22:53 Cloudy 33 0.6 29 -1.7 85 85 WNW 13 20 30.06 1018 10 16.0934 N/A
11:53 pm 23:53 Cloudy 32 undefined 25 -3.9 75 75 W 9 15 30.06 1018 10 16.0934 N/A

Powered by AerisWeather